GW6599 Weather Reports


time (UTC)temp
C
wind
direction
speed
KPH
gust
KPH
rain 1hr
cm
rain 24hr
cm
rain mn
cm
humidity
%
barometer
mb
20260506081039 20 287 6.4 9.7 0.00 0.00 0.00 71
20260506080519 20 330 4.8 6.4 0.00 0.00 0.00 71
20260506073016 21 307 3.2 6.4 0.00 0.00 0.00 69
20260506072537 21 310 1.6 6.4 0.00 0.00 0.00 68
20260506072017 21 291 3.2 8.0 0.00 0.00 0.00 68
20260506071516 21 289 1.6 3.2 0.00 0.00 0.00 67
20260506071037 21 315 1.6 8.0 0.00 0.00 0.00 67
20260506070517 21 8 0.0 3.2 0.00 0.00 0.00 67
20260506062018 21 306 0.0 3.2 0.00 0.00 0.00 57
20260506061518 21 313 1.6 4.8 0.00 0.00 0.00 56
20260506061015 21 0.0 0.0 0.00 0.00 0.00 55
20260506060518 21 135 0.0 0.0 0.00 0.00 0.00 55
20260506051015 21 326 1.6 4.8 0.00 0.00 0.00 52
20260506050516 21 312 3.2 8.0 0.00 0.00 0.00 51
20260506045036 21 323 1.6 4.8 0.00 0.00 0.00 54
20260506044516 21 318 3.2 4.8 0.00 0.00 0.00 54
20260506044016 21 346 0.0 1.6 0.00 0.00 0.00 54
20260506043516 21 343 0.0 1.6 0.00 0.00 0.00 54
20260506043017 21 42 0.0 3.2 0.00 0.00 0.00 55
20260506042516 21 228 0.0 1.6 0.00 0.00 0.00 55
20260506042016 21 0.0 0.0 0.00 0.00 0.00 55
20260506041517 21 282 3.2 4.8 0.00 0.00 0.00 57
20260506041017 21 320 1.6 3.2 0.00 0.00 0.00 57
20260506040517 21 331 0.0 1.6 0.00 0.00 0.00 55
20260506040017 20 132 0.0 1.6 0.00 0.00 0.00 55
20260506035517 21 0.0 0.0 0.00 0.00 0.00 55
20260506035017 21 0.0 0.0 0.00 0.00 0.00 54
20260506034517 21 0.0 0.0 0.00 0.00 0.00 55
20260506034017 21 332 0.0 3.2 0.00 0.00 0.00 54
20260506033517 21 0.0 0.0 0.00 0.00 0.00 53
20260506033017 21 251 1.6 4.8 0.00 0.00 0.00 53
20260506032517 21 214 1.6 3.2 0.00 0.00 0.00 52
20260506032017 21 107 1.6 4.8 0.00 0.00 0.00 52
20260506031518 21 78 1.6 3.2 0.00 0.00 0.00 52
20260506031018 21 0.0 0.0 0.00 0.00 0.00 54
20260506030515 20 124 0.0 3.2 0.00 0.00 0.00 55
20260506030018 20 0.0 0.0 0.00 0.00 0.00 55
20260506025538 20 0.0 0.0 0.00 0.00 0.00 54
20260506025018 20 0.0 0.0 0.00 0.00 0.00 55
20260506024515 20 36 0.0 0.0 0.00 0.00 0.00 54
20260506024015 20 0.0 0.0 0.00 0.00 0.00 55
20260506023515 20 0.0 0.0 0.00 0.00 0.00 54
20260506023015 21 0.0 0.0 0.00 0.00 0.00 54
20260506022516 21 0.0 0.0 0.00 0.00 0.00 55
20260506022016 21 310 1.6 3.2 0.00 0.00 0.00 53
20260506021536 21 0.0 0.0 0.00 0.00 0.00 53
20260506021016 21 0.0 0.0 0.00 0.00 0.00 52
20260506020516 21 0.0 0.0 0.00 0.00 0.00 52
20260506020016 21 0.0 0.0 0.00 0.00 0.00 51
20260506015516 21 0.0 0.0 0.00 0.00 0.00 53
20260506015016 21 0.0 0.0 0.00 0.00 0.00 54
20260506014517 21 321 1.6 3.2 0.00 0.00 0.00 51
20260506014016 21 0.0 0.0 0.00 0.00 0.00 49
20260506013517 21 344 1.6 4.8 0.00 0.00 0.00 52
20260506013016 21 0.0 0.0 0.00 0.00 0.00 53
20260506012516 21 317 0.0 3.2 0.00 0.00 0.00 52
20260506012037 21 0.0 0.0 0.00 0.00 0.00 53
20260506011537 21 329 0.0 1.6 0.00 0.00 0.00 52
20260506011017 22 302 1.6 3.2 0.00 0.00 0.00 51
20260506010517 22 51 0.0 1.6 0.00 0.00 0.00 50
20260506010017 22 0.0 0.0 0.00 0.00 0.00 49
20260506005517 22 0.0 0.0 0.00 0.00 0.00 50
20260506005017 23 0.0 0.0 0.00 0.00 0.00 48
20260506004537 23 273 1.6 3.2 0.00 0.00 0.00 46
20260506004018 23 330 0.0 3.2 0.00 0.00 0.00 48
20260506003517 23 0.0 0.0 0.00 0.00 0.00 48
20260506003017 23 0.0 0.0 0.00 0.00 0.00 47
20260506002517 23 0.0 0.0 0.00 0.00 0.00 47
20260506002017 24 329 0.0 1.6 0.00 0.00 0.00 46
20260506001518 24 317 1.6 4.8 0.00 0.00 0.00 44
20260506001018 24 323 1.6 4.8 0.00 0.00 0.00 43
20260506000518 24 316 3.2 8.0 0.00 0.00 0.00 43
20260506000015 25 316 3.2 6.4 0.00 0.00 0.00 42
20260505235515 25 234 4.8 8.0 0.00 0.00 0.00 43
20260505235018 25 321 1.6 4.8 0.00 0.00 0.00 43
20260505234516 25 312 1.6 4.8 0.00 0.00 0.00 43
20260505234015 25 223 1.6 4.8 0.00 0.00 0.00 43
20260505233516 25 308 3.2 6.4 0.00 0.00 0.00 42
20260505233016 25 309 1.6 3.2 0.00 0.00 0.00 43
20260505232516 25 314 4.8 6.4 0.00 0.00 0.00 43
20260505232015 25 308 1.6 3.2 0.00 0.00 0.00 44
20260505231516 25 296 1.6 4.8 0.00 0.00 0.00 45
20260505231015 25 306 1.6 4.8 0.00 0.00 0.00 45
20260505230516 25 296 1.6 3.2 0.00 0.00 0.00 45
20260505230016 25 305 3.2 4.8 0.00 0.00 0.00 44
20260505225517 26 101 3.2 6.4 0.00 0.00 0.00 42
20260505225016 26 326 1.6 3.2 0.00 0.00 0.00 42
20260505224537 26 315 4.8 6.4 0.00 0.00 0.00 42
20260505224016 25 0.0 0.0 0.00 0.00 0.00 41
20260505223517 25 320 0.0 3.2 0.00 0.00 0.00 41
20260505223017 26 308 3.2 6.4 0.00 0.00 0.00 41
20260505222516 26 312 3.2 4.8 0.00 0.00 0.00 41
20260505222017 26 63 1.6 4.8 0.00 0.00 0.00 41
20260505221517 26 307 1.6 4.8 0.00 0.00 0.00 40
20260505221017 26 304 4.8 9.7 0.00 0.00 0.00 40
20260505220517 26 308 6.4 9.7 0.00 0.00 0.00 39
20260505220017 26 354 4.8 8.0 0.00 0.00 0.00 40
20260505215518 27 324 6.4 9.7 0.00 0.00 0.00 39
20260505215017 27 295 8.0 12.9 0.00 0.00 0.00 38
20260505214638 27 317 4.8 9.7 0.00 0.00 0.00 38
20260505214118 27 319 6.4 12.9 0.00 0.00 0.00 37
20260505213517 27 73 1.6 4.8 0.00 0.00 0.00 39
20260505213018 27 294 6.4 9.7 0.00 0.00 0.00 39
20260505212518 27 168 4.8 8.0 0.00 0.00 0.00 39
20260505212018 27 303 6.4 12.9 0.00 0.00 0.00 40
20260505211518 27 303 6.4 11.3 0.00 0.00 0.00 39
20260505211038 27 325 6.4 12.9 0.00 0.00 0.00 38
20260505210515 27 301 8.0 11.3 0.00 0.00 0.00 38
20260505210015 27 299 4.8 9.7 0.00 0.00 0.00 38
20260505205516 27 315 6.4 11.3 0.00 0.00 0.00 36
20260505205016 27 303 8.0 19.3 0.00 0.00 0.00 38
20260505204515 27 297 4.8 8.0 0.00 0.00 0.00 38
20260505204015 27 233 3.2 9.7 0.00 0.00 0.00 39
20260505203516 27 305 9.7 20.9 0.00 0.00 0.00 38
20260505203016 27 25 4.8 14.5 0.00 0.00 0.00 38
20260505202516 27 323 6.4 14.5 0.00 0.00 0.00 38
20260505202016 26 276 3.2 4.8 0.00 0.00 0.00 39
20260505201516 26 312 6.4 11.3 0.00 0.00 0.00 38
20260505201016 27 9 6.4 9.7 0.00 0.00 0.00 36
20260505200516 26 129 3.2 8.0 0.00 0.00 0.00 38
20260505200016 26 301 8.0 14.5 0.00 0.00 0.00 37
20260505195517 26 339 6.4 11.3 0.00 0.00 0.00 38
20260505195017 26 299 8.0 14.5 0.00 0.00 0.00 37
20260505194537 26 303 6.4 9.7 0.00 0.00 0.00 38
20260505194017 26 300 9.7 30.6 0.00 0.00 0.00 36
20260505193537 26 99 4.8 8.0 0.00 0.00 0.00 38
20260505193017 26 294 3.2 8.0 0.00 0.00 0.00 38
20260505192536 26 241 3.2 6.4 0.00 0.00 0.00 38
20260505192037 26 311 4.8 9.7 0.00 0.00 0.00 37
20260505191517 26 298 4.8 8.0 0.00 0.00 0.00 39
20260505191038 26 312 6.4 9.7 0.00 0.00 0.00 40
20260505190537 26 312 8.0 12.9 0.00 0.00 0.00 40
20260505190017 26 288 8.0 14.5 0.00 0.00 0.00 38
20260505185515 26 247 4.8 9.7 0.00 0.00 0.00 39
20260505185016 26 320 8.0 12.9 0.00 0.00 0.00 41
20260505184536 26 77 4.8 8.0 0.00 0.00 0.00 39
20260505184016 26 314 6.4 9.7 0.00 0.00 0.00 38
20260505183516 26 317 3.2 11.3 0.00 0.00 0.00 38
20260505183016 26 301 8.0 14.5 0.00 0.00 0.00 40
20260505182537 26 293 4.8 11.3 0.00 0.00 0.00 41
20260505182016 26 288 6.4 9.7 0.00 0.00 0.00 40
20260505181516 26 290 11.3 20.9 0.00 0.00 0.00 40
20260505181015 26 327 4.8 11.3 0.00 0.00 0.00 41
20260505180515 26 6 6.4 11.3 0.00 0.00 0.00 42
20260505180015 26 310 8.0 14.5 0.00 0.00 0.00 42
20260505175515 26 310 8.0 14.5 0.00 0.00 0.00 40
20260505175016 26 325 4.8 8.0 0.00 0.00 0.00 41
20260505174516 26 13 6.4 11.3 0.00 0.00 0.00 40
20260505174016 25 306 9.7 12.9 0.00 0.00 0.00 42
20260505173516 25 273 6.4 14.5 0.00 0.00 0.00 42
20260505173016 25 301 9.7 12.9 0.00 0.00 0.00 42
20260505172516 25 282 6.4 12.9 0.00 0.00 0.00 40
20260505172036 25 297 6.4 11.3 0.00 0.00 0.00 40
20260505171516 25 287 8.0 12.9 0.00 0.00 0.00 40
20260505171016 25 285 8.0 11.3 0.00 0.00 0.00 41
20260505170516 25 299 9.7 12.9 0.00 0.00 0.00 40
20260505170016 25 293 8.0 11.3 0.00 0.00 0.00 41
20260505165536 26 298 6.4 9.7 0.00 0.00 0.00 41
20260505165016 25 195 4.8 11.3 0.00 0.00 0.00 42
20260505164516 25 314 6.4 8.0 0.00 0.00 0.00 44
20260505164017 25 310 4.8 8.0 0.00 0.00 0.00 44
20260505163537 25 298 8.0 12.9 0.00 0.00 0.00 43
20260505163017 25 305 4.8 9.7 0.00 0.00 0.00 43
20260505162516 25 334 4.8 9.7 0.00 0.00 0.00 43
20260505162017 25 238 3.2 6.4 0.00 0.00 0.00 44
20260505161517 25 282 8.0 14.5 0.00 0.00 0.00 43
20260505161017 25 4 4.8 8.0 0.00 0.00 0.00 42
20260505160537 25 196 6.4 11.3 0.00 0.00 0.00 43
20260505153018 23 295 3.2 9.7 0.00 0.00 0.00 46
20260505152518 23 306 4.8 6.4 0.00 0.00 0.00 50
20260505152018 24 276 3.2 6.4 0.00 0.00 0.00 49
20260505151517 23 187 1.6 4.8 0.00 0.00 0.00 49
20260505151015 23 311 1.6 4.8 0.00 0.00 0.00 49
20260505150535 23 265 3.2 8.0 0.00 0.00 0.00 47
20260505140516 22 246 1.6 4.8 0.00 0.00 0.00 54
20260505125017 16 0.0 0.0 0.00 0.00 0.00 75
20260505124517 15 0.0 0.0 0.00 0.00 0.00 78
20260505124017 15 0.0 0.0 0.00 0.00 0.00 78
20260505123517 14 0.0 0.0 0.00 0.00 0.00 80
20260505123018 14 0.0 0.0 0.00 0.00 0.00 81
20260505122518 14 0.0 0.0 0.00 0.00 0.00 80
20260505122038 14 311 0.0 1.6 0.00 0.00 0.00 78
20260505121518 13 0.0 0.0 0.00 0.00 0.00 79
20260505121018 13 0.0 0.0 0.00 0.00 0.00 80
20260505120518 13 0.0 0.0 0.00 0.00 0.00 81
20260505120018 12 0.0 0.0 0.00 0.00 0.00 82
20260505115518 12 63 0.0 1.6 0.00 0.00 0.00 82
20260505115018 11 0.0 0.0 0.00 0.00 0.00 85
20260505114535 11 0.0 0.0 0.00 0.00 0.00 86
20260505114015 10 0.0 0.0 0.00 0.00 0.00 88
20260505113515 10 320 0.0 1.6 0.00 0.00 0.00 92
20260505113015 9 0.0 0.0 0.00 0.00 0.00 95
20260505112544 8 0.0 0.0 0.00 0.00 0.00 97
20260505112023 8 0.0 0.0 0.00 0.00 0.00 97
20260505111523 8 0.0 0.0 0.00 0.00 0.00 97
20260505111016 8 0.0 0.0 0.00 0.00 0.00 97
20260505110516 8 0.0 0.0 0.00 0.00 0.00 97
20260505102016 8 0.0 0.0 0.00 0.00 0.00 97
20260505101537 8 0.0 0.0 0.00 0.00 0.00 96
20260505101017 8 26 0.0 0.0 0.00 0.00 0.00 97
20260505100517 8 0.0 0.0 0.00 0.00 0.00 96
20260505100017 8 0.0 0.0 0.00 0.00 0.00 97
20260505095517 8 297 0.0 1.6 0.00 0.00 0.00 96
20260505095037 8 286 0.0 0.0 0.00 0.00 0.00 96
20260505094517 8 0.0 0.0 0.00 0.00 0.00 96
20260505094018 8 311 0.0 1.6 0.00 0.00 0.00 95
20260505093517 8 333 0.0 1.6 0.00 0.00 0.00 95
20260505093017 8 315 0.0 1.6 0.00 0.00 0.00 95
20260505092518 8 0.0 0.0 0.00 0.00 0.00 95
20260505092018 8 285 1.6 1.6 0.00 0.00 0.00 95
20260505091517 8 339 0.0 1.6 0.00 0.00 0.00 95
20260505091018 8 0.0 0.0 0.00 0.00 0.00 94
20260505090518 9 318 0.0 1.6 0.00 0.00 0.00 94
20260505090018 9 312 0.0 1.6 0.00 0.00 0.00 94
20260505085518 9 0.0 0.0 0.00 0.00 0.00 93
20260505085035 9 313 0.0 1.6 0.00 0.00 0.00 93
20260505084515 9 0.0 0.0 0.00 0.00 0.00 93
20260505084015 9 0.0 0.0 0.00 0.00 0.00 92
20260505083515 9 316 0.0 1.6 0.00 0.00 0.00 92
20260505083015 10 0.0 0.0 0.00 0.00 0.00 91
20260505082516 10 304 1.6 3.2 0.00 0.00 0.00 92
20260505082016 10 0.0 0.0 0.00 0.00 0.00 92
20260505081516 10 329 0.0 1.6 0.00 0.00 0.00 92